Location: Fort Collins
(40.5850°N, 105.0840°W)
Time: 06:18:46
(UTC-07:00)

Cosmos 2297 Rocket - Visible Passes

Search period start: 21 January 2017 00:00
Search period end: 31 January 2017 00:00
Orbit: 839 x 844 km, 71.0° (Epoch: 20 January)

Date Brightness Start Highest point End Pass type
(mag) Time Alt. Az. Time Alt. Az. Time Alt. Az.
21 Jan 4.1 04:32:59 18° N 04:32:59 18° N 04:34:29 10° NNE visible
22 Jan 4.5 04:18:37 14° NNE 04:18:37 14° NNE 04:19:25 10° NNE visible
23 Jan 4.7 04:04:09 11° NNE 04:04:09 11° NNE 04:04:20 10° NNE visible
